Probability
29 26 35 42 48 52 52 52 48 58 65 55 48 52 52 48 42 35 29 32 32 32 42 29 45 48 48 42 42 42 42 42 39 29 26 23 23 26 26 26 19 10 10
26 32 42 48 55 52 52 52 55 48 55 48 52 52 48 48 45 39 39 35 35 35 26 39 48 52 55 48 42 42 42 39 39 29 23 19 23 19 10 23 16 16 13
32 35 42 45 48 52 45 45 52 52 45 48 52 48 52 52 45 42 42 39 35 45 42 39 39 42 45 45 45 45 39 35 29 26 23 16 16 16 13 16 10 16 19
29 35 45 45 45 42 45 48 52 52 52 45 39 52 48 45 39 48 39 42 32 35 35 35 39 39 42 42 39 32 35 35 26 29 29 26 26 16 16 13 19 16 16
26 39 42 45 45 42 42 42 48 52 52 52 48 45 45 48 45 42 48 45 42 39 35 39 42 45 42 42 39 39 39 35 32 26 26 16 13 13 13 13 13 10 6
26 39 39 42 39 42 42 45 45 48 52 48 48 48 48 52 48 55 48 42 45 42 42 39 42 42 42 48 42 39 29 29 16 16 16 23 19 13 10 10 6 3 6
29 39 32 39 42 42 42 45 45 45 45 45 48 48 52 52 52 45 45 45 42 39 48 35 39 35 39 42 32 35 29 19 16 13 19 13 10 16 6 6 6 6 6
29 32 35 39 42 42 42 42 42 42 42 42 45 48 45 45 42 45 35 35 35 29 32 32 29 32 29 23 26 13 19 13 10 10 16 13 13 13 10 3 10 6 6
29 29 32 35 35 39 42 42 42 42 42 45 45 45 42 42 42 39 39 35 39 26 29 26 29 26 23 19 13 6 13 13 13 13 10 16 16 13 10 10 6 6 3
26 29 32 35 35 35 35 42 42 42 42 42 45 39 35 39 32 32 39 39 35 29 26 23 26 26 19 19 13 13 13 13 16 13 13 13 13 13 13 10 10 13 6
29 29 32 35 35 35 32 35 42 42 42 42 39 35 35 35 29 32 35 35 29 19 26 26 23 19 19 19 16 16 16 16 16 13 10 10 10 10 10 10 3 3 6
26 29 35 35 35 35 39 35 39 39 39 39 35 35 39 32 35 32 35 29 23 23 19 19 23 19 23 19 13 13 13 16 10 10 6 3 6 6 6 10 3 3 3
26 26 39 39 39 35 39 32 32 35 39 35 35 35 35 39 35 32 29 26 23 23 19 23 23 23 23 23 19 16 19 10 6 10 10 6 6 3 6 10 0 0 0
29 23 35 35 32 29 29 29 32 35 32 35 35 35 39 39 35 35 29 26 19 19 16 23 23 19 16 10 10 16 13 10 6 3 6 6 3 3 3 0 3 0 0
29 29 29 32 29 29 29 29 29 32 32 32 32 39 39 35 32 32 29 29 23 19 16 13 13 16 3 6 6 6 6 13 6 0 0 0 0 0 0 0 3 0 0
23 26 32 32 32 32 29 29 32 29 29 29 26 39 35 32 32 32 29 29 23 16 19 19 16 13 0 0 0 3 6 6 3 0 0 0 0 0 0 0 0 0 0
29 29 32 32 35 32 35 35 26 32 32 29 23 29 32 29 29 29 29 32 26 16 16 16 13 10 0 0 0 0 0 3 3 6 3 0 0 0 0 0 0 0 0
29 39 42 35 35 32 32 32 23 29 29 29 23 26 26 26 26 26 29 26 23 19 13 16 6 10 0 0 0 0 0 3 6 6 6 3 0 0 0 0 0 0 0
39 42 39 32 35 29 29 32 26 19 19 23 19 19 23 23 26 26 29 26 23 23 19 16 13 10 0 0 0 0 3 6 6 6 3 6 0 0 0 0 0 0 0
39 42 35 29 29 29 32 29 23 23 23 23 23 23 23 19 19 29 29 23 26 19 16 16 10 10 3 0 0 0 3 6 10 3 3 0 0 0 0 0 0 0 0
29 35 29 32 39 29 32 29 23 26 23 19 23 23 26 26 26 26 26 29 23 16 16 16 10 6 3 0 0 0 0 3 0 3 3 3 0 0 0 0 0 0 0
35 26 29 32 29 26 23 23 29 23 26 19 19 19 23 19 16 26 26 23 16 16 13 19 13 10 3 0 0 0 0 0 0 0 3 0 0 0 0 0 0 0 0
26 26 26 32 26 23 23 26 26 23 26 23 23 23 23 23 19 16 19 19 16 6 6 10 10 6 6 0 0 0 0 0 0 0 0 0 0 0 0 0 0 0 0
23 26 19 23 26 23 23 23 26 23 23 26 26 26 26 19 16 13 10 10 6 6 6 0 0 3 0 0 0 0 0 0 0 0 0 0 0 0 0 0 0 0 0
16 19 23 23 26 23 23 19 23 23 23 26 19 16 16 13 13 10 10 10 10 6 3 0 3 3 0 0 0 0 0 0 0 0 0 0 3 0 0 0 0 0 0
16 16 19 19 19 19 19 16 16 19 19 19 16 13 13 16 16 10 3 0 0 0 0 0 0 0 0 0 0 0 0 0 0 0 0 0 3 0 0 0 0 0 0
Height
5851 5851 5850 5850 5849 5849 5848 5847 5846 5845 5844 5844 5844 5843 5842 5842 5841 5841 5840 5839 5839 5838 5837 5836 5836 5835 5835 5834 5834 5835 5835 5835 5835 5835 5835 5836 5836 5837 5838 5838 5839 5839 5840
5848 5848 5848 5847 5847 5846 5846 5845 5844 5843 5842 5842 5841 5840 5839 5839 5838 5838 5837 5836 5836 5835 5834 5833 5832 5832 5831 5831 5831 5831 5831 5831 5831 5831 5831 5831 5832 5832 5833 5833 5834 5835 5835
5845 5845 5845 5845 5844 5844 5844 5843 5841 5840 5839 5839 5838 5837 5836 5836 5835 5834 5834 5833 5832 5832 5831 5830 5829 5828 5828 5827 5827 5826 5826 5826 5826 5826 5827 5827 5828 5828 5828 5829 5829 5830 5830
5842 5842 5842 5842 5842 5842 5841 5840 5839 5838 5837 5836 5835 5834 5833 5832 5832 5831 5830 5830 5829 5828 5827 5826 5825 5825 5824 5823 5823 5822 5822 5822 5822 5822 5822 5822 5823 5823 5824 5824 5824 5825 5825
5839 5839 5839 5839 5839 5839 5838 5838 5837 5836 5835 5834 5832 5831 5830 5829 5828 5827 5827 5826 5825 5824 5823 5822 5821 5820 5820 5819 5818 5818 5817 5817 5817 5817 5817 5817 5817 5817 5818 5819 5819 5819 5819
5836 5836 5836 5836 5836 5836 5835 5835 5834 5833 5832 5831 5829 5828 5826 5825 5824 5823 5822 5821 5821 5820 5819 5818 5817 5816 5815 5814 5814 5813 5813 5812 5812 5812 5812 5812 5812 5812 5812 5813 5813 5814 5814
5833 5833 5833 5833 5833 5833 5832 5832 5831 5830 5829 5827 5826 5824 5823 5821 5820 5819 5818 5817 5816 5815 5814 5813 5812 5811 5810 5809 5808 5808 5807 5807 5806 5806 5806 5806 5806 5806 5807 5807 5808 5808 5809
5829 5830 5830 5830 5829 5829 5828 5828 5827 5826 5825 5824 5822 5820 5819 5817 5816 5815 5813 5812 5811 5810 5810 5809 5807 5806 5805 5804 5803 5802 5802 5801 5800 5800 5800 5800 5800 5800 5801 5801 5802 5802 5803
5825 5826 5826 5826 5825 5825 5824 5824 5823 5823 5822 5820 5818 5817 5815 5813 5812 5811 5809 5808 5806 5805 5805 5804 5803 5801 5800 5799 5798 5797 5796 5795 5795 5794 5794 5794 5794 5794 5794 5795 5796 5796 5796
5821 5822 5822 5821 5821 5821 5820 5820 5819 5818 5818 5816 5815 5813 5812 5810 5808 5807 5805 5804 5802 5801 5800 5799 5798 5796 5795 5794 5792 5791 5790 5790 5789 5788 5788 5788 5788 5788 5788 5789 5789 5789 5790
5816 5817 5817 5817 5817 5816 5815 5815 5815 5814 5813 5812 5811 5810 5808 5806 5805 5803 5802 5800 5799 5797 5796 5794 5793 5791 5790 5789 5787 5786 5785 5784 5783 5782 5782 5781 5781 5782 5782 5782 5782 5783 5783
5812 5812 5812 5812 5812 5812 5811 5811 5811 5810 5810 5809 5807 5806 5804 5803 5801 5800 5798 5797 5795 5794 5792 5791 5789 5787 5786 5784 5782 5781 5780 5779 5778 5777 5776 5776 5775 5775 5775 5776 5776 5776 5776
5807 5807 5807 5807 5808 5807 5807 5807 5807 5806 5805 5804 5803 5802 5801 5799 5797 5796 5794 5793 5792 5790 5789 5787 5785 5783 5782 5780 5778 5777 5776 5774 5773 5772 5771 5770 5770 5769 5769 5769 5770 5769 5769
5802 5802 5802 5803 5803 5803 5803 5803 5802 5802 5801 5800 5799 5798 5797 5795 5794 5792 5791 5789 5788 5787 5785 5783 5781 5779 5778 5776 5774 5773 5771 5769 5768 5766 5765 5764 5764 5763 5763 5763 5763 5763 5762
5795 5797 5797 5797 5797 5798 5798 5798 5798 5797 5796 5796 5795 5794 5793 5791 5790 5788 5787 5785 5784 5782 5781 5779 5777 5775 5774 5772 5770 5768 5766 5765 5763 5762 5760 5759 5758 5758 5757 5757 5757 5757 5756
5790 5790 5791 5791 5792 5792 5792 5793 5792 5792 5792 5791 5790 5789 5788 5787 5785 5784 5783 5781 5780 5778 5777 5775 5773 5771 5769 5768 5766 5764 5762 5760 5759 5757 5756 5755 5753 5753 5752 5752 5752 5751 5751
5783 5784 5785 5785 5786 5787 5787 5787 5787 5787 5787 5786 5786 5785 5784 5782 5781 5780 5778 5777 5775 5774 5772 5771 5769 5767 5766 5764 5762 5760 5758 5756 5755 5753 5752 5750 5749 5748 5747 5747 5747 5746 5745
5777 5778 5779 5780 5780 5781 5781 5781 5782 5782 5782 5782 5781 5781 5780 5778 5777 5776 5774 5773 5771 5770 5768 5767 5765 5764 5762 5761 5759 5757 5755 5753 5751 5749 5748 5746 5745 5743 5743 5742 5741 5741 5739
5772 5772 5773 5774 5775 5775 5775 5776 5777 5777 5778 5777 5777 5776 5775 5774 5773 5772 5771 5769 5767 5766 5765 5763 5762 5760 5759 5757 5755 5754 5752 5750 5748 5746 5744 5742 5741 5740 5738 5738 5737 5736 5734
5766 5766 5767 5768 5769 5769 5770 5771 5772 5772 5772 5773 5772 5771 5771 5770 5769 5768 5767 5765 5764 5763 5762 5760 5758 5757 5755 5754 5752 5750 5748 5746 5744 5742 5741 5739 5737 5735 5734 5733 5731 5730 5729
5760 5760 5761 5762 5763 5764 5764 5765 5766 5767 5767 5767 5767 5767 5766 5766 5765 5764 5763 5762 5761 5759 5758 5756 5755 5753 5752 5750 5749 5747 5745 5743 5741 5739 5737 5734 5733 5731 5730 5728 5727 5725 5724
5754 5755 5755 5756 5757 5758 5759 5760 5760 5761 5761 5762 5762 5762 5762 5761 5761 5760 5759 5758 5757 5756 5754 5753 5751 5750 5748 5747 5745 5744 5742 5740 5738 5735 5733 5730 5728 5727 5725 5724 5722 5721 5719
5747 5748 5749 5750 5752 5753 5754 5755 5755 5755 5756 5756 5757 5757 5757 5757 5756 5756 5755 5754 5753 5752 5751 5750 5748 5747 5745 5744 5742 5740 5738 5736 5734 5732 5729 5727 5725 5723 5721 5720 5718 5717 5715
5741 5742 5743 5744 5746 5747 5748 5749 5750 5750 5751 5751 5752 5752 5752 5752 5752 5751 5750 5750 5749 5748 5747 5746 5745 5743 5742 5740 5739 5737 5735 5733 5731 5728 5726 5724 5722 5720 5718 5716 5714 5712 5710
5735 5737 5737 5739 5740 5741 5743 5744 5744 5745 5746 5747 5747 5747 5747 5747 5747 5746 5746 5745 5745 5744 5743 5742 5741 5740 5739 5737 5735 5734 5732 5730 5728 5725 5724 5722 5720 5718 5715 5713 5711 5708 5706
5730 5731 5732 5733 5734 5735 5737 5738 5739 5740 5740 5741 5742 5742 5742 5742 5742 5742 5742 5741 5740 5740 5739 5738 5737 5736 5735 5733 5731 5730 5728 5726 5724 5723 5721 5718 5716 5714 5712 5709 5707 5705 5702
Wind_Speed
16 16 15 15 14 14 14 14 14 14 13 13 13 13 13 13 13 14 13 13 14 14 14 13 13 13 13 13 13 14 15 15 16 17 17 19 19 19 19 19 19 19 18
16 16 16 15 14 14 14 15 15 14 13 13 14 14 14 14 14 14 14 14 15 15 14 13 13 13 13 14 14 15 15 16 17 17 17 18 19 20 19 19 19 19 19
16 16 16 15 13 13 14 14 14 14 14 14 14 14 14 14 14 14 14 15 15 15 14 13 13 14 14 14 15 16 17 17 17 18 18 18 18 19 19 19 19 20 21
16 15 15 14 13 14 14 14 14 14 14 14 14 14 14 14 14 14 15 16 16 15 15 15 14 15 15 15 16 16 16 17 17 18 18 19 19 19 19 19 20 20 21
15 15 15 14 14 15 15 14 14 14 15 15 15 14 15 14 14 15 16 17 16 17 17 17 16 16 16 16 16 17 17 17 18 18 19 19 19 19 19 20 21 21 21
15 15 15 14 14 15 16 15 14 15 15 15 15 15 15 15 15 16 17 17 17 17 17 17 17 17 17 18 17 17 18 18 18 19 19 20 20 20 20 20 21 21 21
15 16 16 15 15 15 15 15 15 15 16 15 15 15 16 16 16 17 17 17 17 17 17 17 17 18 18 19 19 19 19 19 19 19 19 20 21 21 21 21 22 22 22
17 17 16 16 16 16 15 15 15 16 16 17 16 16 16 16 17 17 17 17 16 16 17 17 18 18 19 20 20 19 19 20 20 20 20 20 20 21 21 22 23 23 22
18 18 17 17 17 16 16 16 15 16 16 16 16 16 16 16 16 17 16 16 16 16 17 18 18 19 20 20 19 19 19 19 20 20 21 22 22 22 22 23 23 24 24
20 19 18 17 17 17 17 17 16 16 16 16 16 16 17 17 16 16 16 15 16 16 17 18 18 19 19 19 20 20 20 20 20 20 21 22 22 23 23 25 25 25 26
21 21 19 17 17 18 17 17 17 16 16 16 16 16 17 17 16 15 15 15 15 16 16 17 17 18 19 19 20 20 20 20 20 21 21 21 21 23 24 25 25 25 26
21 21 19 18 18 17 17 17 17 17 17 17 16 16 17 17 16 15 15 15 15 15 15 15 16 16 17 18 18 19 19 19 19 19 20 20 21 21 22 23 24 24 25
20 20 19 19 18 18 17 18 18 18 17 17 17 17 17 17 17 16 16 16 16 16 16 17 17 17 17 17 17 18 18 18 18 18 19 19 20 21 21 22 22 22 23
20 21 21 20 19 19 18 18 18 18 18 17 17 17 16 17 17 17 16 16 16 16 16 17 17 17 17 17 17 17 18 18 18 19 19 19 19 20 20 21 21 21 21
20 21 21 20 19 19 19 18 18 18 18 17 17 16 17 17 17 16 16 17 17 17 17 17 18 17 17 18 17 17 17 17 18 18 18 19 19 19 20 20 21 21 21
23 22 22 21 19 19 19 19 19 18 18 18 18 17 17 17 17 17 17 17 17 17 18 18 18 17 17 17 17 17 17 17 17 17 17 18 18 18 18 18 19 20 21
23 23 22 22 21 19 19 19 19 18 18 18 18 17 17 17 16 16 16 17 17 17 17 17 17 16 15 16 17 17 17 17 17 17 17 17 17 16 17 17 18 18 19
24 22 22 21 21 20 20 19 18 18 17 17 17 17 17 16 16 16 16 16 16 16 16 16 16 15 15 15 16 16 16 16 16 16 16 16 16 16 16 16 17 18 20
23 22 22 21 21 21 20 19 19 18 18 19 19 18 18 17 17 16 16 16 16 15 15 16 16 16 15 15 16 16 16 16 15 15 15 15 15 16 16 17 18 18 19
22 22 22 21 21 20 20 19 19 18 18 19 18 18 17 16 16 16 17 17 16 15 15 15 15 15 15 15 15 16 17 16 16 16 16 17 17 17 17 17 18 18 18
21 21 21 21 20 20 20 20 19 20 19 19 18 18 17 16 16 17 17 17 17 16 15 15 15 15 15 15 15 16 16 16 17 17 17 17 17 17 17 17 18 18 19
20 21 21 21 20 20 20 19 18 19 19 19 19 19 18 17 17 18 18 17 16 16 16 16 16 15 14 14 14 15 16 17 17 17 16 16 16 17 17 17 18 18 18
20 20 20 20 20 20 20 19 18 19 19 19 19 19 18 18 18 17 17 16 15 15 15 14 14 14 13 14 14 15 15 16 16 16 16 16 16 16 16 16 17 17 17
20 20 20 21 21 21 20 19 19 19 19 19 19 19 18 17 16 16 16 15 15 15 15 15 14 14 14 14 15 15 15 16 16 16 16 16 16 16 16 16 17 18 18
21 21 21 21 22 22 21 20 20 20 19 19 18 18 18 17 17 16 15 15 14 14 14 15 14 14 15 15 15 16 16 16 16 16 16 16 17 17 17 17 17 17 18
21 21 20 21 21 21 21 21 20 20 19 18 18 17 17 17 17 16 15 14 14 14 14 14 15 15 15 16 15 16 17 17 17 17 17 18 19 19 18 18 17 18 18
Wind_Direction
277 281 284 287 291 293 296 296 299 298 293 292 293 294 293 290 291 290 292 295 298 300 299 295 291 287 283 280 279 277 277 277 276 274 272 269 271 269 266 266 265 264 265
276 277 280 284 289 293 295 296 297 295 293 292 293 294 295 292 290 289 292 296 295 296 295 292 288 286 283 281 279 278 278 278 277 276 275 273 273 272 270 268 269 266 265
273 276 277 280 286 291 295 297 297 297 298 298 298 297 296 295 291 291 292 293 293 291 292 293 290 286 285 283 281 280 278 277 276 275 273 273 273 272 271 270 268 268 267
272 276 277 280 284 289 292 294 295 298 301 301 301 299 297 296 295 294 292 291 293 291 293 295 292 290 288 288 287 285 282 278 275 274 274 274 274 273 271 269 268 269 270
271 275 277 277 283 288 292 293 293 296 298 297 299 299 297 296 295 294 292 291 293 293 293 294 292 289 289 289 287 284 281 278 276 274 274 275 275 275 272 268 267 268 270
270 274 278 281 283 287 289 291 294 298 297 296 297 298 297 297 296 294 292 291 291 292 292 292 291 290 290 289 287 285 282 279 275 272 272 274 273 272 272 269 267 269 270
270 273 277 280 282 286 288 289 292 297 298 296 297 297 299 297 296 296 292 291 291 290 289 291 289 289 289 289 286 284 282 280 275 273 273 273 271 271 270 269 268 269 271
268 273 277 277 280 284 287 289 292 296 298 298 298 298 299 300 297 297 295 292 291 290 289 289 289 288 288 288 287 285 284 281 278 276 275 273 273 271 269 269 269 270 271
267 271 275 276 277 280 284 287 289 293 296 298 301 300 300 301 298 297 297 296 293 290 289 289 288 289 289 288 287 288 288 285 282 279 276 273 272 271 270 271 272 271 272
265 270 273 277 277 278 280 284 286 287 290 295 300 302 304 305 303 301 299 297 297 295 293 291 292 291 290 289 289 288 288 287 284 281 279 276 272 271 271 272 273 273 274
262 265 269 273 277 277 279 283 285 289 290 292 295 299 302 304 305 303 301 299 299 299 298 298 297 296 293 290 290 291 291 292 289 286 283 280 275 273 272 273 274 275 276
263 265 267 270 273 275 277 282 284 287 289 292 295 299 303 302 302 302 302 302 302 302 301 302 302 301 301 298 294 293 295 297 295 292 288 283 279 278 278 278 279 279 277
265 266 267 267 270 272 276 280 282 284 286 290 294 298 301 302 301 300 300 301 300 300 300 301 303 302 303 302 298 297 298 298 296 295 293 288 284 282 281 281 281 280 278
260 264 268 267 267 270 273 276 279 282 282 286 290 294 298 299 301 300 299 299 298 298 300 303 305 304 303 301 300 299 300 300 298 297 294 289 288 285 283 280 278 280 280
257 261 264 265 266 268 271 272 276 279 280 283 286 291 294 296 298 297 296 297 297 296 297 301 305 303 302 302 301 302 302 300 300 299 297 292 289 286 285 282 280 280 281
263 263 265 265 267 270 269 269 272 274 277 281 284 287 293 294 294 295 296 296 296 296 297 301 304 303 303 304 304 305 304 302 301 301 301 298 294 291 288 286 284 284 285
261 264 266 267 270 272 272 269 269 271 276 279 282 286 291 293 292 293 295 297 296 296 298 302 304 304 305 307 307 307 309 307 305 303 303 300 296 291 290 288 287 289 289
262 265 265 267 268 269 270 270 270 270 273 279 283 285 286 287 290 293 296 297 297 297 300 302 303 302 304 306 308 308 310 311 310 309 306 302 297 295 292 290 292 292 293
264 263 263 265 266 265 264 267 269 271 273 277 280 283 283 283 288 292 293 295 297 298 300 302 304 302 302 305 307 307 310 314 314 315 313 309 303 300 296 294 294 295 295
261 262 262 263 263 261 262 263 265 270 273 275 277 280 281 284 288 292 293 296 300 299 301 305 308 306 303 303 305 310 312 314 315 315 312 307 305 305 303 301 301 300 299
260 261 261 261 261 261 262 261 265 268 271 272 274 278 279 283 288 292 293 294 298 300 300 304 307 306 306 309 309 309 311 313 314 314 311 308 305 305 305 304 303 302 300
259 259 258 259 260 261 263 262 265 269 269 270 271 274 277 281 285 288 291 294 296 299 302 301 304 305 306 309 311 315 314 316 317 314 312 311 310 308 305 303 304 302 301
257 257 255 255 257 259 260 260 264 267 267 266 268 272 275 279 282 285 287 290 295 298 300 301 304 306 307 310 311 313 317 320 319 315 314 314 313 313 310 307 308 307 305
256 256 255 254 255 257 256 259 262 265 266 266 270 273 275 276 281 284 287 292 294 297 299 301 304 307 307 308 310 312 316 320 323 323 321 319 320 317 315 312 312 311 309
254 253 254 254 254 256 257 261 264 266 265 265 268 272 275 277 279 283 285 289 293 295 296 297 300 304 306 307 307 309 314 319 322 323 322 319 318 317 316 316 317 315 314
252 251 254 256 254 254 256 259 261 262 262 263 267 271 274 275 277 280 282 285 288 291 291 292 295 301 304 308 308 308 311 314 317 319 319 317 316 316 318 318 318 318 318